Location: Wanzleben
(52.0609°N, 11.4408°E)
Time: 11:02:35
(UTC+00:00)

IGS 5A - Pass Details

Date: 18 September 2020
Orbit: 583 x 588 km, 97.6° (Epoch: 09 October)

Event Time Altitude Azimuth Distance (km) Brightness Sun altitude
Exits shadow 19:37:08 45° 70° (ENE) 806 3.8 -20.6°
Maximum altitude 19:37:09 45° 69° (ENE) 806 3.8 -20.6°
Drops below altitude 10° 19:41:07 10° 357° (N) 1,920 6.5 -21.1°
Sets 19:43:20 0° 351° (N) 2,824 7.6 -21.4°
